Location: Elliott Island road
(38.3470°N, 75.9376°W)
Time: 10:53:10
(UTC-04:00)

Tiangong 2 - Visible Passes

Search period start: 22 July 2018 00:00
Search period end: 01 August 2018 00:00
Orbit: 386 x 394 km, 42.8° (Epoch: 22 July)

Date Brightness Start Highest point End Pass type
(mag) Time Alt. Az. Time Alt. Az. Time Alt. Az.
22 Jul 1.1 21:19:58 10° WNW 21:23:10 75° NNE 21:25:28 17° ESE visible
22 Jul 4.0 22:57:22 10° W 22:57:47 12° W 22:57:47 12° W visible
23 Jul 2.0 21:59:16 10° W 22:02:12 34° SSW 22:02:33 33° SSW visible
24 Jul 1.3 21:01:24 10° WNW 21:04:33 61° SSW 21:07:21 13° SE visible
25 Jul 3.1 21:41:10 10° W 21:43:26 18° SW 21:44:32 16° S visible
26 Jul 2.4 20:42:58 10° W 20:45:50 31° SSW 20:48:43 10° SSE visible
